Location: Acheville
(50.3840°N, 2.8827°E)
Time: 23:57:20
(UTC+00:00)

FENGYUN 1C DEB - Pass Details

Date: 09 February 2023
Orbit: 634 x 940 km, 98.3° (Epoch: 28 March)

Event Time Altitude Azimuth Distance (km) Brightness Sun altitude
Rises 18:31:02 0° 203° (SSW) 3,162 ? -15.7°
Reaches altitude 10° 18:33:55 10° 220° (SW) 2,190 ? -16.1°
Maximum altitude 18:37:25 20° 267° (W) 1,559 ? -16.7°
Drops below altitude 10° 18:40:49 10° 316° (NW) 2,096 ? -17.2°
Sets 18:43:31 0° 333° (NNW) 2,982 ? -17.7°
